| time (UTC) | temp F | wind direction | speed MPH | gust MPH | rain 1hr in | rain 24hr in | rain mn in | humidity % | barometer mb |
| 20260502220020 | 71 | 134 | 2.0 | 11.0 | 0.00 | 0.00 | 0.00 | 13 | 1019.7 |
| 20260502215518 | 71 | 123 | 5.0 | 12.0 | 0.00 | 0.00 | 0.00 | 13 | 1019.9 |
| 20260502215019 | 71 | 86 | 6.0 | 12.0 | 0.00 | 0.00 | 0.00 | 12 | 1019.9 |
| 20260502214533 | 72 | 77 | 4.0 | 11.0 | 0.00 | 0.00 | 0.00 | 13 | 1020.0 |
| 20260502214019 | 72 | 129 | 7.0 | 13.0 | 0.00 | 0.00 | 0.00 | 12 | 1020.2 |
| 20260502213516 | 72 | 140 | 5.0 | 13.0 | 0.00 | 0.00 | 0.00 | 11 | 1020.3 |
| 20260502213014 | 71 | 109 | 5.0 | 12.0 | 0.00 | 0.00 | 0.00 | 12 | 1020.4 |
| 20260502212513 | 72 | 172 | 4.0 | 12.0 | 0.00 | 0.00 | 0.00 | 12 | 1020.5 |
| 20260502212011 | 71 | 77 | 4.0 | 12.0 | 0.00 | 0.00 | 0.00 | 13 | 1020.5 |
| 20260502211517 | 72 | 91 | 6.0 | 15.0 | 0.00 | 0.00 | 0.00 | 12 | 1020.6 |
| 20260502211009 | 71 | 125 | 5.0 | 13.0 | 0.00 | 0.00 | 0.00 | 13 | 1020.7 |
| 20260502210509 | 71 | 186 | 8.0 | 16.0 | 0.00 | 0.00 | 0.00 | 12 | 1020.8 |
| 20260502210021 | 71 | 107 | 5.0 | 14.0 | 0.00 | 0.00 | 0.00 | 13 | 1020.8 |
| 20260502205508 | 71 | 118 | 7.0 | 14.0 | 0.00 | 0.00 | 0.00 | 13 | 1021.0 |
| 20260502205007 | 71 | 127 | 6.0 | 11.0 | 0.00 | 0.00 | 0.00 | 13 | 1021.0 |
| 20260502204511 | 71 | 138 | 6.0 | 11.0 | 0.00 | 0.00 | 0.00 | 14 | 1021.0 |
| 20260502204006 | 71 | 94 | 6.0 | 12.0 | 0.00 | 0.00 | 0.00 | 13 | 1021.1 |
| 20260502203504 | 71 | 141 | 6.0 | 14.0 | 0.00 | 0.00 | 0.00 | 12 | 1021.3 |
| 20260502203007 | 70 | 129 | 6.0 | 14.0 | 0.00 | 0.00 | 0.00 | 15 | 1021.3 |
| 20260502202504 | 70 | 75 | 7.0 | 14.0 | 0.00 | 0.00 | 0.00 | 12 | 1021.5 |
| 20260502202004 | 71 | 129 | 8.0 | 14.0 | 0.00 | 0.00 | 0.00 | 13 | 1021.4 |
| 20260502201507 | 71 | 159 | 4.0 | 10.0 | 0.00 | 0.00 | 0.00 | 14 | 1021.5 |
| 20260502201002 | 70 | 123 | 5.0 | 12.0 | 0.00 | 0.00 | 0.00 | 14 | 1021.6 |
| 20260502200503 | 71 | 141 | 5.0 | 12.0 | 0.00 | 0.00 | 0.00 | 13 | 1021.7 |
| 20260502200001 | 71 | 141 | 5.0 | 12.0 | 0.00 | 0.00 | 0.00 | 13 | 1021.7 |
| 20260502195600 | 70 | 153 | 4.0 | 13.0 | 0.00 | 0.00 | 0.00 | 13 | 1021.8 |
| 20260502195059 | 70 | 100 | 7.0 | 13.0 | 0.00 | 0.00 | 0.00 | 12 | 1021.9 |
| 20260502194558 | 70 | 125 | 6.0 | 13.0 | 0.00 | 0.00 | 0.00 | 13 | 1022.0 |
| 20260502194101 | 70 | 139 | 8.0 | 13.0 | 0.00 | 0.00 | 0.00 | 13 | 1022.0 |
| 20260502193556 | 69 | 120 | 6.0 | 14.0 | 0.00 | 0.00 | 0.00 | 14 | 1022.1 |
| 20260502193056 | 69 | 161 | 9.0 | 14.0 | 0.00 | 0.00 | 0.00 | 11 | 1022.2 |
| 20260502192556 | 69 | 148 | 6.0 | 13.0 | 0.00 | 0.00 | 0.00 | 13 | 1022.3 |
| 20260502192053 | 69 | 120 | 5.0 | 14.0 | 0.00 | 0.00 | 0.00 | 14 | 1022.4 |
| 20260502191553 | 69 | 118 | 8.0 | 13.0 | 0.00 | 0.00 | 0.00 | 13 | 1022.5 |
| 20260502191052 | 69 | 136 | 6.0 | 14.0 | 0.00 | 0.00 | 0.00 | 14 | 1022.6 |
| 20260502190552 | 69 | 147 | 8.0 | 14.0 | 0.00 | 0.00 | 0.00 | 14 | 1022.6 |
| 20260502190051 | 69 | 211 | 8.0 | 14.0 | 0.00 | 0.00 | 0.00 | 15 | 1022.7 |
| 20260502185550 | 69 | 153 | 7.0 | 14.0 | 0.00 | 0.00 | 0.00 | 15 | 1022.8 |
| 20260502185049 | 69 | 94 | 6.0 | 17.0 | 0.00 | 0.00 | 0.00 | 15 | 1022.9 |
| 20260502184556 | 69 | 161 | 8.0 | 17.0 | 0.00 | 0.00 | 0.00 | 14 | 1022.9 |
| 20260502184052 | 69 | 134 | 8.0 | 14.0 | 0.00 | 0.00 | 0.00 | 14 | 1023.0 |
| 20260502183546 | 68 | 96 | 7.0 | 13.0 | 0.00 | 0.00 | 0.00 | 14 | 1023.0 |
| 20260502183046 | 68 | 144 | 7.0 | 16.0 | 0.00 | 0.00 | 0.00 | 14 | 1023.1 |
| 20260502182545 | 68 | 113 | 6.0 | 17.0 | 0.00 | 0.00 | 0.00 | 15 | 1023.1 |
| 20260502182048 | 68 | 148 | 9.0 | 17.0 | 0.00 | 0.00 | 0.00 | 16 | 1023.2 |
| 20260502181545 | 68 | 120 | 6.0 | 15.0 | 0.00 | 0.00 | 0.00 | 16 | 1023.2 |
| 20260502181042 | 67 | 118 | 8.0 | 18.0 | 0.00 | 0.00 | 0.00 | 16 | 1023.3 |
| 20260502180544 | 67 | 153 | 9.0 | 17.0 | 0.00 | 0.00 | 0.00 | 16 | 1023.3 |
| 20260502164028 | 63 | 130 | 7.0 | 12.0 | 0.00 | 0.00 | 0.00 | 26 | 1023.9 |
| 20260502163526 | 63 | 162 | 6.0 | 12.0 | 0.00 | 0.00 | 0.00 | 28 | 1024.0 |
| 20260502163028 | 63 | 160 | 6.0 | 11.0 | 0.00 | 0.00 | 0.00 | 29 | 1024.0 |
| 20260502162526 | 62 | 131 | 5.0 | 12.0 | 0.00 | 0.00 | 0.00 | 30 | 1024.0 |
| 20260502162024 | 62 | 141 | 6.0 | 14.0 | 0.00 | 0.00 | 0.00 | 30 | 1023.9 |
| 20260502161524 | 62 | 160 | 5.0 | 14.0 | 0.00 | 0.00 | 0.00 | 32 | 1023.9 |
| 20260502161024 | 62 | 140 | 4.0 | 11.0 | 0.00 | 0.00 | 0.00 | 32 | 1023.9 |
| 20260502160527 | 62 | 181 | 5.0 | 12.0 | 0.00 | 0.00 | 0.00 | 30 | 1023.9 |
| 20260502152015 | 59 | 153 | 4.0 | 10.0 | 0.00 | 0.00 | 0.00 | 32 | 1024.2 |
| 20260502151514 | 59 | 156 | 5.0 | 10.0 | 0.00 | 0.00 | 0.00 | 32 | 1024.2 |
| 20260502151013 | 59 | 131 | 5.0 | 8.0 | 0.00 | 0.00 | 0.00 | 33 | 1024.2 |
| 20260502150512 | 58 | 115 | 3.0 | 8.0 | 0.00 | 0.00 | 0.00 | 34 | 1024.3 |
| 20260502130547 | 48 | 175 | 1.0 | 4.0 | 0.00 | 0.00 | 0.00 | 46 | 1024.3 |
| 20260502123541 | 45 | 198 | 0.0 | 1.0 | 0.00 | 0.00 | 0.00 | 53 | 1024.1 |
| 20260502123047 | 44 | 200 | 0.0 | 2.0 | 0.00 | 0.00 | 0.00 | 54 | 1024.1 |
| 20260502122542 | 44 | 193 | 0.0 | 2.0 | 0.00 | 0.00 | 0.00 | 56 | 1024.0 |
| 20260502122041 | 44 | 201 | 0.0 | 0.0 | 0.00 | 0.00 | 0.00 | 57 | 1024.0 |
| 20260502121544 | 45 | 198 | 0.0 | 0.0 | 0.00 | 0.00 | 0.00 | 58 | 1024.0 |
| 20260502121039 | 45 | 198 | 0.0 | 0.0 | 0.00 | 0.00 | 0.00 | 57 | 1024.1 |
| 20260502120535 | 46 | 198 | 0.0 | 1.0 | 0.00 | 0.00 | 0.00 | 55 | 1024.0 |
| 20260502115535 | 46 | 158 | 0.0 | 3.0 | 0.00 | 0.00 | 0.00 | 53 | 1024.0 |
| 20260502115034 | 47 | 161 | 1.0 | 4.0 | 0.00 | 0.00 | 0.00 | 53 | 1023.9 |
| 20260502114535 | 47 | 162 | 1.0 | 4.0 | 0.00 | 0.00 | 0.00 | 54 | 1023.9 |
| 20260502114033 | 47 | 141 | 1.0 | 4.0 | 0.00 | 0.00 | 0.00 | 55 | 1023.9 |
| 20260502113533 | 47 | 195 | 1.0 | 4.0 | 0.00 | 0.00 | 0.00 | 54 | 1023.9 |
| 20260502113033 | 47 | 151 | 1.0 | 5.0 | 0.00 | 0.00 | 0.00 | 55 | 1023.9 |
| 20260502112532 | 47 | 164 | 2.0 | 6.0 | 0.00 | 0.00 | 0.00 | 57 | 1023.9 |
| 20260502112032 | 48 | 185 | 3.0 | 6.0 | 0.00 | 0.00 | 0.00 | 59 | 1023.8 |
| 20260502111538 | 48 | 164 | 1.0 | 7.0 | 0.00 | 0.00 | 0.00 | 60 | 1023.9 |
| 20260502111032 | 48 | 212 | 2.0 | 6.0 | 0.00 | 0.00 | 0.00 | 59 | 1023.9 |
| 20260502110531 | 48 | 158 | 2.0 | 6.0 | 0.00 | 0.00 | 0.00 | 58 | 1023.9 |
| 20260502110035 | 48 | 154 | 2.0 | 6.0 | 0.00 | 0.00 | 0.00 | 56 | 1023.9 |
| 20260502105531 | 48 | 217 | 1.0 | 8.0 | 0.00 | 0.00 | 0.00 | 55 | 1023.9 |
| 20260502105028 | 48 | 173 | 3.0 | 8.0 | 0.00 | 0.00 | 0.00 | 54 | 1024.0 |
| 20260502104529 | 48 | 148 | 2.0 | 6.0 | 0.00 | 0.00 | 0.00 | 54 | 1024.0 |
| 20260502104028 | 48 | 165 | 1.0 | 3.0 | 0.00 | 0.00 | 0.00 | 54 | 1024.0 |
| 20260502103528 | 48 | 167 | 1.0 | 4.0 | 0.00 | 0.00 | 0.00 | 53 | 1024.0 |
| 20260502103027 | 48 | 165 | 2.0 | 4.0 | 0.00 | 0.00 | 0.00 | 52 | 1024.0 |
| 20260502102531 | 47 | 165 | 1.0 | 3.0 | 0.00 | 0.00 | 0.00 | 52 | 1024.0 |
| 20260502102028 | 47 | 186 | 1.0 | 3.0 | 0.00 | 0.00 | 0.00 | 53 | 1024.0 |
| 20260502101527 | 47 | 167 | 1.0 | 3.0 | 0.00 | 0.00 | 0.00 | 52 | 1023.9 |
| 20260502101026 | 47 | 146 | 0.0 | 3.0 | 0.00 | 0.00 | 0.00 | 51 | 1023.9 |
| 20260502100526 | 47 | 215 | 1.0 | 3.0 | 0.00 | 0.00 | 0.00 | 50 | 1023.9 |
| 20260502091524 | 47 | 215 | 0.0 | 3.0 | 0.00 | 0.00 | 0.00 | 46 | 1023.7 |
| 20260502091023 | 48 | 216 | 1.0 | 3.0 | 0.00 | 0.00 | 0.00 | 46 | 1023.8 |
| 20260502090523 | 48 | 215 | 1.0 | 4.0 | 0.00 | 0.00 | 0.00 | 45 | 1023.8 |
| 20260502071514 | 47 | 230 | 1.0 | 3.0 | 0.00 | 0.00 | 0.00 | 47 | 1024.1 |
| 20260502071011 | 47 | 250 | 1.0 | 2.0 | 0.00 | 0.00 | 0.00 | 47 | 1024.1 |
| 20260502070513 | 47 | 257 | 1.0 | 3.0 | 0.00 | 0.00 | 0.00 | 47 | 1024.1 |
| 20260502070019 | 46 | 224 | 2.0 | 3.0 | 0.00 | 0.00 | 0.00 | 48 | 1024.1 |
| 20260502065510 | 46 | 243 | 0.0 | 0.0 | 0.00 | 0.00 | 0.00 | 51 | 1024.1 |
| 20260502065011 | 47 | 236 | 0.0 | 0.0 | 0.00 | 0.00 | 0.00 | 50 | 1024.1 |
| 20260502064507 | 47 | 236 | 0.0 | 0.0 | 0.00 | 0.00 | 0.00 | 48 | 1024.1 |
| 20260502064006 | 47 | 236 | 0.0 | 1.0 | 0.00 | 0.00 | 0.00 | 47 | 1024.1 |
| 20260502063507 | 47 | 236 | 0.0 | 1.0 | 0.00 | 0.00 | 0.00 | 48 | 1024.0 |
| 20260502063007 | 47 | 236 | 0.0 | 2.0 | 0.00 | 0.00 | 0.00 | 49 | 1024.0 |
| 20260502062505 | 47 | 236 | 0.0 | 3.0 | 0.00 | 0.00 | 0.00 | 48 | 1024.0 |
| 20260502062005 | 47 | 238 | 2.0 | 3.0 | 0.00 | 0.00 | 0.00 | 47 | 1024.0 |
| 20260502061504 | 47 | 238 | 0.0 | 0.0 | 0.00 | 0.00 | 0.00 | 49 | 1024.0 |
| 20260502061004 | 47 | 161 | 0.0 | 0.0 | 0.00 | 0.00 | 0.00 | 49 | 1023.9 |
| 20260502060502 | 47 | 160 | 0.0 | 0.0 | 0.00 | 0.00 | 0.00 | 48 | 1023.9 |
| 20260502060001 | 48 | 160 | 0.0 | 0.0 | 0.00 | 0.00 | 0.00 | 48 | 1023.9 |
| 20260502055502 | 48 | 154 | 0.0 | 0.0 | 0.00 | 0.00 | 0.00 | 46 | 1023.9 |
| 20260502055003 | 49 | 154 | 0.0 | 0.0 | 0.00 | 0.00 | 0.00 | 46 | 1023.9 |
| 20260502054500 | 49 | 153 | 0.0 | 0.0 | 0.00 | 0.00 | 0.00 | 42 | 1023.9 |
| 20260502054000 | 49 | 126 | 0.0 | 0.0 | 0.00 | 0.00 | 0.00 | 44 | 1023.9 |
| 20260502053500 | 49 | 157 | 0.0 | 1.0 | 0.00 | 0.00 | 0.00 | 43 | 1023.8 |
| 20260502053100 | 50 | 157 | 0.0 | 1.0 | 0.00 | 0.00 | 0.00 | 42 | 1023.8 |
| 20260502052600 | 50 | 186 | 0.0 | 0.0 | 0.00 | 0.00 | 0.00 | 40 | 1023.8 |
| 20260502052102 | 51 | 149 | 0.0 | 0.0 | 0.00 | 0.00 | 0.00 | 39 | 1023.8 |
| 20260502051600 | 51 | 244 | 0.0 | 0.0 | 0.00 | 0.00 | 0.00 | 38 | 1023.8 |
| 20260502051101 | 51 | 258 | 0.0 | 0.0 | 0.00 | 0.00 | 0.00 | 38 | 1023.7 |
| 20260502050600 | 51 | 259 | 0.0 | 2.0 | 0.00 | 0.00 | 0.00 | 38 | 1023.8 |
| 20260502050100 | 51 | 261 | 0.0 | 2.0 | 0.00 | 0.00 | 0.00 | 38 | 1023.8 |
| 20260502045600 | 51 | 269 | 1.0 | 3.0 | 0.00 | 0.00 | 0.00 | 38 | 1023.8 |
| 20260502045100 | 51 | 264 | 0.0 | 2.0 | 0.00 | 0.00 | 0.00 | 38 | 1023.8 |
| 20260502044600 | 52 | 247 | 0.0 | 0.0 | 0.00 | 0.00 | 0.00 | 38 | 1023.8 |
| 20260502044058 | 52 | 257 | 0.0 | 0.0 | 0.00 | 0.00 | 0.00 | 38 | 1023.8 |
| 20260502043558 | 52 | 250 | 0.0 | 0.0 | 0.00 | 0.00 | 0.00 | 38 | 1023.7 |
| 20260502043108 | 52 | 262 | 0.0 | 0.0 | 0.00 | 0.00 | 0.00 | 38 | 1023.8 |
| 20260502042601 | 52 | 148 | 0.0 | 0.0 | 0.00 | 0.00 | 0.00 | 37 | 1023.7 |
| 20260502042059 | 52 | 145 | 0.0 | 0.0 | 0.00 | 0.00 | 0.00 | 37 | 1023.7 |
| 20260502041559 | 53 | 249 | 0.0 | 2.0 | 0.00 | 0.00 | 0.00 | 36 | 1023.7 |
| 20260502041058 | 53 | 267 | 0.0 | 3.0 | 0.00 | 0.00 | 0.00 | 35 | 1023.6 |
| 20260502040558 | 53 | 255 | 0.0 | 3.0 | 0.00 | 0.00 | 0.00 | 35 | 1023.6 |
| 20260502040058 | 53 | 276 | 1.0 | 3.0 | 0.00 | 0.00 | 0.00 | 35 | 1023.5 |
| 20260502035600 | 53 | 246 | 0.0 | 2.0 | 0.00 | 0.00 | 0.00 | 35 | 1023.5 |
| 20260502035057 | 53 | 252 | 1.0 | 2.0 | 0.00 | 0.00 | 0.00 | 35 | 1023.4 |
| 20260502034557 | 53 | 261 | 0.0 | 0.0 | 0.00 | 0.00 | 0.00 | 35 | 1023.4 |
| 20260502034057 | 54 | 251 | 0.0 | 0.0 | 0.00 | 0.00 | 0.00 | 35 | 1023.3 |
| 20260502033556 | 54 | 252 | 0.0 | 3.0 | 0.00 | 0.00 | 0.00 | 35 | 1023.2 |
| 20260502033058 | 54 | 275 | 1.0 | 3.0 | 0.00 | 0.00 | 0.00 | 34 | 1023.2 |
| 20260502032556 | 55 | 274 | 1.0 | 2.0 | 0.00 | 0.00 | 0.00 | 34 | 1023.1 |
| 20260502032059 | 55 | 277 | 1.0 | 3.0 | 0.00 | 0.00 | 0.00 | 34 | 1023.0 |
| 20260502031557 | 55 | 269 | 1.0 | 3.0 | 0.00 | 0.00 | 0.00 | 33 | 1023.0 |
| 20260502031059 | 56 | 274 | 2.0 | 3.0 | 0.00 | 0.00 | 0.00 | 33 | 1022.9 |
| 20260502030555 | 56 | 257 | 1.0 | 3.0 | 0.00 | 0.00 | 0.00 | 32 | 1022.8 |
| 20260502030059 | 56 | 275 | 1.0 | 3.0 | 0.00 | 0.00 | 0.00 | 32 | 1022.7 |
| 20260502025555 | 57 | 280 | 1.0 | 2.0 | 0.00 | 0.00 | 0.00 | 31 | 1022.6 |
| 20260502025058 | 57 | 274 | 1.0 | 2.0 | 0.00 | 0.00 | 0.00 | 31 | 1022.6 |
| 20260502024556 | 58 | 284 | 0.0 | 5.0 | 0.00 | 0.00 | 0.00 | 30 | 1022.5 |
| 20260502024055 | 58 | 290 | 2.0 | 5.0 | 0.00 | 0.00 | 0.00 | 29 | 1022.5 |
| 20260502023558 | 59 | 291 | 1.0 | 4.0 | 0.00 | 0.00 | 0.00 | 29 | 1022.5 |
| 20260502023057 | 59 | 307 | 2.0 | 5.0 | 0.00 | 0.00 | 0.00 | 28 | 1022.4 |
| 20260502022556 | 59 | 318 | 2.0 | 5.0 | 0.00 | 0.00 | 0.00 | 27 | 1022.4 |
| 20260502022054 | 59 | 324 | 2.0 | 4.0 | 0.00 | 0.00 | 0.00 | 27 | 1022.4 |
| 20260502021555 | 60 | 325 | 1.0 | 6.0 | 0.00 | 0.00 | 0.00 | 27 | 1022.4 |
| 20260502021054 | 60 | 342 | 3.0 | 6.0 | 0.00 | 0.00 | 0.00 | 26 | 1022.4 |
| 20260502020554 | 61 | 324 | 4.0 | 7.0 | 0.00 | 0.00 | 0.00 | 25 | 1022.4 |
| 20260502020054 | 61 | 312 | 3.0 | 8.0 | 0.00 | 0.00 | 0.00 | 25 | 1022.2 |
| 20260502015554 | 61 | 308 | 0.0 | 9.0 | 0.00 | 0.00 | 0.00 | 25 | 1022.2 |
| 20260502015054 | 61 | 304 | 4.0 | 9.0 | 0.00 | 0.00 | 0.00 | 25 | 1022.2 |
| 20260502014553 | 62 | 305 | 4.0 | 9.0 | 0.00 | 0.00 | 0.00 | 25 | 1022.2 |
| 20260502014053 | 62 | 319 | 5.0 | 10.0 | 0.00 | 0.00 | 0.00 | 25 | 1022.2 |
| 20260502013554 | 62 | 293 | 6.0 | 11.0 | 0.00 | 0.00 | 0.00 | 25 | 1022.1 |
| 20260502013055 | 62 | 305 | 4.0 | 9.0 | 0.00 | 0.00 | 0.00 | 25 | 1022.1 |
| 20260502012552 | 63 | 298 | 3.0 | 10.0 | 0.00 | 0.00 | 0.00 | 25 | 1022.0 |
| 20260502012052 | 63 | 353 | 5.0 | 10.0 | 0.00 | 0.00 | 0.00 | 25 | 1022.0 |
| 20260502011556 | 62 | 328 | 4.0 | 11.0 | 0.00 | 0.00 | 0.00 | 25 | 1022.0 |
| 20260502011052 | 62 | 273 | 5.0 | 10.0 | 0.00 | 0.00 | 0.00 | 25 | 1022.0 |
| 20260502010551 | 62 | 330 | 5.0 | 12.0 | 0.00 | 0.00 | 0.00 | 25 | 1022.1 |
| 20260502010054 | 63 | 4 | 5.0 | 13.0 | 0.00 | 0.00 | 0.00 | 25 | 1022.1 |
| 20260502005551 | 63 | 273 | 4.0 | 12.0 | 0.00 | 0.00 | 0.00 | 25 | 1022.1 |
| 20260502005051 | 63 | 301 | 5.0 | 12.0 | 0.00 | 0.00 | 0.00 | 25 | 1022.1 |
| 20260502004605 | 63 | 248 | 6.0 | 10.0 | 0.00 | 0.00 | 0.00 | 25 | 1022.1 |
| 20260502004051 | 63 | 357 | 5.0 | 13.0 | 0.00 | 0.00 | 0.00 | 25 | 1022.0 |
| 20260502003550 | 63 | 1 | 8.0 | 13.0 | 0.00 | 0.00 | 0.00 | 25 | 1022.1 |
| 20260502003050 | 64 | 341 | 7.0 | 12.0 | 0.00 | 0.00 | 0.00 | 24 | 1022.0 |
| 20260502002549 | 63 | 330 | 4.0 | 11.0 | 0.00 | 0.00 | 0.00 | 25 | 1022.1 |
| 20260502002049 | 63 | 328 | 6.0 | 12.0 | 0.00 | 0.00 | 0.00 | 24 | 1022.1 |
| 20260502001649 | 64 | 347 | 5.0 | 12.0 | 0.00 | 0.00 | 0.00 | 24 | 1022.1 |
| 20260502001049 | 63 | 342 | 4.0 | 11.0 | 0.00 | 0.00 | 0.00 | 24 | 1022.1 |
| 20260502000548 | 63 | 10 | 7.0 | 16.0 | 0.00 | 0.00 | 0.00 | 24 | 1022.2 |
| 20260502000055 | 63 | 32 | 8.0 | 16.0 | 0.00 | 0.00 | 0.00 | 25 | 1022.2 |
| 20260501235547 | 63 | 59 | 7.0 | 15.0 | 0.00 | 0.00 | 0.00 | 24 | 1022.2 |
| 20260501235046 | 63 | 356 | 7.0 | 15.0 | 0.00 | 0.00 | 0.00 | 25 | 1022.3 |
| 20260501234546 | 63 | 323 | 9.0 | 18.0 | 0.00 | 0.00 | 0.00 | 24 | 1022.3 |
| 20260501234048 | 63 | 354 | 10.0 | 18.0 | 0.00 | 0.00 | 0.00 | 24 | 1022.2 |
| 20260501233547 | 64 | 351 | 7.0 | 12.0 | 0.00 | 0.00 | 0.00 | 24 | 1022.2 |
| 20260501233047 | 63 | 331 | 5.0 | 12.0 | 0.00 | 0.00 | 0.00 | 24 | 1022.2 |
| 20260501232547 | 64 | 306 | 5.0 | 12.0 | 0.00 | 0.00 | 0.00 | 24 | 1022.2 |
| 20260501232046 | 64 | 314 | 7.0 | 12.0 | 0.00 | 0.00 | 0.00 | 24 | 1022.2 |
| 20260501231545 | 64 | 58 | 6.0 | 13.0 | 0.00 | 0.00 | 0.00 | 24 | 1022.2 |
| 20260501231045 | 64 | 340 | 5.0 | 14.0 | 0.00 | 0.00 | 0.00 | 23 | 1022.3 |
| 20260501230545 | 64 | 359 | 5.0 | 14.0 | 0.00 | 0.00 | 0.00 | 24 | 1022.3 |
| 20260501230044 | 64 | 352 | 3.0 | 14.0 | 0.00 | 0.00 | 0.00 | 24 | 1022.3 |
| 20260501225547 | 64 | 321 | 6.0 | 14.0 | 0.00 | 0.00 | 0.00 | 22 | 1022.4 |
| 20260501225045 | 64 | 319 | 2.0 | 10.0 | 0.00 | 0.00 | 0.00 | 23 | 1022.4 |
| 20260501224543 | 64 | 8 | 3.0 | 13.0 | 0.00 | 0.00 | 0.00 | 24 | 1022.4 |
| 20260501224042 | 64 | 316 | 3.0 | 13.0 | 0.00 | 0.00 | 0.00 | 22 | 1022.5 |
| 20260501223542 | 64 | 11 | 4.0 | 12.0 | 0.00 | 0.00 | 0.00 | 23 | 1022.4 |
| 20260501223041 | 64 | 41 | 5.0 | 12.0 | 0.00 | 0.00 | 0.00 | 22 | 1022.5 |
| 20260501222541 | 64 | 342 | 6.0 | 14.0 | 0.00 | 0.00 | 0.00 | 22 | 1022.5 |
| 20260501222041 | 64 | 303 | 5.0 | 15.0 | 0.00 | 0.00 | 0.00 | 22 | 1022.5 |
| 20260501221541 | 64 | 341 | 6.0 | 15.0 | 0.00 | 0.00 | 0.00 | 22 | 1022.6 |
| 20260501221042 | 64 | 1 | 6.0 | 13.0 | 0.00 | 0.00 | 0.00 | 22 | 1022.7 |
| 20260501220540 | 64 | 35 | 7.0 | 13.0 | 0.00 | 0.00 | 0.00 | 20 | 1022.7 |